Flag for Germany Weather past 2 weeks in Hilden, North Rhine-Westphalia, Germany

Now
57 °F

Fog.


Feels Like: 56 °F
Forecast: 57 / 77 °F
Wind: 7 mph from Northeast

Location: Duesseldorf

Current Time: Sep 3, 2014 at 2:56:15 AM

Latest Report: Sep 3, 2014 at 2:20 AM


Visibility: N/A

Pressure: 30.21 "Hg

Humidity: 100%

Dew point: 57 °F

Location of HildenLocation

Historic Weather in Hilden — Graph

°F

Hilden temperature yesterday

Maximum temperature yesterday: 68 °F (at 12:50 PM)
Minimum temperature yesterday: 50 °F (at 4:50 AM)
Average temperature yesterday: 60 °F

Past Weeks' High & Low Weather Summary

 TemperatureHumidityPressure
High73 °F (Aug 28, 2:20 PM)100% (Aug 26, 8:20 AM)30.21 "Hg (Aug 26, 8:20 AM)
Low46 °F (Aug 20, 2:50 AM)40% (Aug 27, 4:20 PM)29.62 "Hg (Aug 26, 4:50 AM)
Average58 °F79%29.97 "Hg
* Reported Aug 19 1:20 AM — Sep 3 1:50 AM, Hilden, Weather by CustomWeather, © 2014

Note: Actual official high and low records may vary slightly from our data, if they occured in-between our weather recording intervals... More about our weather records

Advertising

Hilden weather history for previous 24 hours

 ConditionsComfort  
Time TempWeatherWind HumidityBarometerVisibility
1:50 AM
Sep 3
57 °FFog.3 mph94%30.21 "HgN/A
1:20 AM57 °FFog.2 mph94%30.21 "HgN/A
12:50 AM59 °FFog.2 mph88%30.21 "HgN/A
12:20 AM61 °FClear.2 mph88%30.21 "Hg10 mi
11:50 PM
Sep 2
61 °FClear.1 mph88%30.21 "Hg10 mi
11:20 PM61 °FClear.3 mph88%30.21 "Hg10 mi
10:50 PM61 °FClear.2 mph88%30.21 "Hg10 mi
10:20 PM61 °FClear.2 mph88%30.21 "Hg10 mi
9:50 PM59 °FClear.3 mph94%30.21 "Hg10 mi
8:50 PM61 °FFog.5 mph88%30.21 "HgN/A
8:20 PM63 °FSunny.5 mph83%30.21 "Hg10 mi
7:50 PM64 °FScattered clouds.5 mph78%30.21 "HgN/A
7:20 PM64 °FPartly sunny.6 mph78%30.18 "HgN/A
6:50 PM64 °FPartly sunny.9 mph78%30.18 "HgN/A
6:20 PM66 °FPartly sunny.7 mph73%30.18 "HgN/A
5:50 PM66 °FBroken clouds.8 mph73%30.18 "HgN/A
5:20 PM66 °FPartly sunny.9 mph73%30.18 "HgN/A
4:50 PM66 °FBroken clouds.9 mph78%30.18 "HgN/A
4:20 PM66 °FBroken clouds.10 mph73%30.18 "HgN/A
3:20 PM66 °FPartly sunny.9 mph68%30.18 "HgN/A
2:50 PM68 °FPartly sunny.9 mph64%30.18 "HgN/A
2:20 PM68 °FPartly sunny.9 mph64%30.18 "HgN/A
1:50 PM68 °FPartly sunny.9 mph60%30.18 "HgN/A
1:20 PM68 °FScattered clouds.6 mph60%30.18 "HgN/A
12:50 PM68 °FScattered clouds.8 mph60%30.18 "HgN/A
12:20 PM66 °FPassing clouds.7 mph60%30.18 "HgN/A
11:50 AM66 °FSunny.6 mph64%30.18 "Hg10 mi
11:20 AM64 °FSunny.6 mph68%30.18 "Hg10 mi
10:50 AM64 °FSunny.5 mph73%30.18 "Hg10 mi
10:20 AM63 °FSunny.3 mph77%30.18 "Hg10 mi
9:50 AM61 °FSunny.No wind83%30.18 "Hg10 mi
9:20 AM59 °FSunny.2 mph88%30.18 "Hg10 mi
8:50 AM57 °FSunny.2 mph94%30.18 "Hg10 mi
8:20 AM54 °FSunny.2 mph100%30.18 "Hg10 mi
7:50 AM52 °FSunny.5 mph100%30.18 "Hg10 mi
7:20 AM50 °FFog.5 mph94%30.18 "HgN/A
6:50 AM50 °FFog.2 mph94%30.15 "HgN/A
6:20 AM50 °FFog.2 mph94%30.15 "HgN/A
5:50 AM50 °FFog.2 mph94%30.15 "HgN/A
5:20 AM50 °FFog.2 mph100%30.15 "HgN/A
4:50 AM50 °FFog.3 mph100%30.15 "HgN/A
4:20 AM52 °FFog.3 mph94%30.15 "HgN/A
3:50 AM52 °FFog.3 mph94%30.15 "HgN/A
3:20 AM52 °FFog.1 mph94%30.15 "HgN/A
2:50 AM54 °FFog.2 mph94%30.15 "HgN/A
2:20 AM54 °FFog.2 mph94%30.15 "HgN/A
Weather by CustomWeather, © 2014

See weather overviewHow to use our weather pages